| time (UTC) | temp F | wind direction | speed MPH | gust MPH | rain 1hr in | rain 24hr in | rain mn in | humidity % | barometer mb |
| 20260904173932 | 81 | 171 | 5.0 | 10.0 | 0.00 | 0.15 | 0.14 | 81 | 1011.3 |
| 20260904173431 | 82 | 171 | 5.0 | 8.0 | 0.00 | 0.15 | 0.14 | 81 | 1011.2 |
| 20260904172930 | 82 | 168 | 5.0 | 7.0 | 0.00 | 0.15 | 0.14 | 80 | 1011.2 |
| 20260904172433 | 83 | 171 | 5.0 | 7.0 | 0.00 | 0.15 | 0.14 | 80 | 1011.1 |
| 20260904171930 | 83 | 181 | 6.0 | 10.0 | 0.00 | 0.15 | 0.14 | 79 | 1011.1 |
| 20260904171430 | 83 | 170 | 6.0 | 10.0 | 0.00 | 0.15 | 0.14 | 78 | 1011.0 |
| 20260904170930 | 83 | 167 | 5.0 | 9.0 | 0.00 | 0.15 | 0.14 | 78 | 1011.0 |
| 20260904170430 | 84 | 167 | 5.0 | 8.0 | 0.00 | 0.15 | 0.14 | 79 | 1011.0 |
| 20260904170237 | 83 | 173 | 4.0 | 6.0 | 0.00 | 0.15 | 0.14 | 79 | 1011.0 |
| 20260904165429 | 83 | 167 | 3.0 | 6.0 | 0.00 | 0.15 | 0.14 | 78 | 1011.0 |
| 20260904164929 | 84 | 182 | 4.0 | 6.0 | 0.00 | 0.15 | 0.14 | 76 | 1010.8 |
| 20260904164430 | 84 | 158 | 4.0 | 7.0 | 0.00 | 0.15 | 0.14 | 75 | 1010.9 |
| 20260904163929 | 84 | 167 | 4.0 | 7.0 | 0.00 | 0.15 | 0.14 | 75 | 1011.0 |
| 20260904163429 | 84 | 182 | 3.0 | 7.0 | 0.00 | 0.15 | 0.14 | 77 | 1011.0 |
| 20260904162928 | 84 | 176 | 3.0 | 6.0 | 0.00 | 0.15 | 0.14 | 79 | 1010.9 |
| 20260904162736 | 83 | 160 | 3.0 | 6.0 | 0.00 | 0.15 | 0.14 | 77 | 1010.9 |
| 20260904161929 | 83 | 170 | 2.0 | 5.0 | 0.00 | 0.15 | 0.14 | 77 | 1010.9 |
| 20260904161428 | 83 | 186 | 2.0 | 4.0 | 0.00 | 0.15 | 0.14 | 78 | 1010.9 |
| 20260904160928 | 83 | 177 | 1.0 | 3.0 | 0.00 | 0.15 | 0.14 | 79 | 1010.9 |
| 20260904160429 | 82 | 177 | 1.0 | 3.0 | 0.00 | 0.15 | 0.14 | 78 | 1010.9 |
| 20260904155927 | 82 | 177 | 0.0 | 2.0 | 0.00 | 0.15 | 0.14 | 80 | 1010.8 |
| 20260904155427 | 82 | 177 | 1.0 | 2.0 | 0.00 | 0.17 | 0.14 | 82 | 1010.9 |
| 20260904154925 | 82 | 177 | 1.0 | 4.0 | 0.00 | 0.18 | 0.14 | 80 | 1010.9 |
| 20260904154425 | 82 | 172 | 1.0 | 4.0 | 0.00 | 0.18 | 0.14 | 80 | 1011.1 |
| 20260904154229 | 81 | 160 | 1.0 | 4.0 | 0.00 | 0.18 | 0.14 | 81 | 1011.1 |
| 20260904153424 | 81 | 161 | 2.0 | 4.0 | 0.00 | 0.18 | 0.14 | 83 | 1011.2 |
| 20260904153050 | 81 | 99 | 1.0 | 4.0 | 0.00 | 0.18 | 0.14 | 87 | 1011.1 |
| 20260904153013 | 81 | 99 | 1.0 | 4.0 | 0.00 | 0.18 | 0.14 | 86 | 1011.2 |
| 20260904151921 | 80 | 95 | 1.0 | 4.0 | 0.00 | 0.18 | 0.14 | 87 | 1011.2 |
| 20260904151544 | 80 | 111 | 1.0 | 3.0 | 0.00 | 0.18 | 0.14 | 89 | 1011.1 |
| 20260904151512 | 80 | 104 | 1.0 | 4.0 | 0.00 | 0.18 | 0.14 | 89 | 1011.1 |
| 20260904150417 | 79 | 113 | 0.0 | 3.0 | 0.00 | 0.18 | 0.14 | 90 | 1011.1 |
| 20260904150228 | 79 | 146 | 0.0 | 0.0 | 0.00 | 0.18 | 0.14 | 91 | 1011.0 |
| 20260904145417 | 78 | 146 | 0.0 | 0.0 | 0.00 | 0.18 | 0.14 | 92 | 1010.9 |
| 20260904144918 | 78 | 146 | 0.0 | 0.0 | 0.00 | 0.18 | 0.14 | 92 | 1010.9 |
| 20260904144417 | 78 | 146 | 0.0 | 0.0 | 0.00 | 0.18 | 0.14 | 93 | 1010.9 |
| 20260904143916 | 78 | 146 | 0.0 | 0.0 | 0.00 | 0.18 | 0.14 | 94 | 1010.9 |
| 20260904143416 | 78 | 146 | 0.0 | 0.0 | 0.00 | 0.18 | 0.14 | 95 | 1010.9 |
| 20260904143225 | 78 | 146 | 0.0 | 0.0 | 0.00 | 0.18 | 0.14 | 95 | 1010.8 |
| 20260904142415 | 78 | 146 | 0.0 | 0.0 | 0.00 | 0.18 | 0.14 | 95 | 1010.8 |
| 20260904141912 | 77 | 146 | 0.0 | 0.0 | 0.00 | 0.18 | 0.14 | 95 | 1010.9 |
| 20260904141411 | 77 | 146 | 0.0 | 0.0 | 0.00 | 0.18 | 0.14 | 95 | 1010.8 |
| 20260904140912 | 77 | 146 | 0.0 | 0.0 | 0.00 | 0.18 | 0.14 | 95 | 1010.7 |
| 20260904140411 | 76 | 146 | 0.0 | 0.0 | 0.00 | 0.18 | 0.14 | 95 | 1010.7 |
| 20260904135912 | 76 | 146 | 0.0 | 0.0 | 0.00 | 0.18 | 0.14 | 95 | 1010.7 |
| 20260904135411 | 76 | 146 | 0.0 | 0.0 | 0.00 | 0.18 | 0.14 | 96 | 1010.7 |
| 20260904134910 | 76 | 146 | 0.0 | 0.0 | 0.00 | 0.19 | 0.14 | 96 | 1010.6 |
| 20260904134410 | 76 | 146 | 0.0 | 0.0 | 0.00 | 0.19 | 0.14 | 96 | 1010.6 |
| 20260904133908 | 76 | 146 | 0.0 | 0.0 | 0.00 | 0.19 | 0.14 | 95 | 1010.6 |
| 20260904133408 | 75 | 146 | 0.0 | 0.0 | 0.00 | 0.19 | 0.14 | 95 | 1010.5 |
| 20260904132909 | 75 | 146 | 0.0 | 0.0 | 0.00 | 0.20 | 0.14 | 95 | 1010.5 |
| 20260904132720 | 75 | 146 | 0.0 | 0.0 | 0.00 | 0.21 | 0.14 | 95 | 1010.5 |
| 20260904131908 | 75 | 146 | 0.0 | 0.0 | 0.00 | 0.21 | 0.14 | 95 | 1010.4 |
| 20260904131407 | 75 | 146 | 0.0 | 0.0 | 0.00 | 0.22 | 0.14 | 95 | 1010.4 |
| 20260904130905 | 75 | 146 | 0.0 | 0.0 | 0.00 | 0.23 | 0.14 | 95 | 1010.3 |
| 20260904130405 | 75 | 146 | 0.0 | 0.0 | 0.00 | 0.24 | 0.14 | 95 | 1010.3 |
| 20260904125906 | 75 | 146 | 0.0 | 0.0 | 0.00 | 0.24 | 0.14 | 95 | 1010.3 |
| 20260904125716 | 75 | 146 | 0.0 | 0.0 | 0.00 | 0.25 | 0.14 | 95 | 1010.1 |
| 20260904124908 | 75 | 146 | 0.0 | 0.0 | 0.00 | 0.25 | 0.14 | 95 | 1010.1 |
| 20260904124409 | 74 | 146 | 0.0 | 0.0 | 0.00 | 0.25 | 0.14 | 95 | 1010.1 |
| 20260904123907 | 74 | 146 | 0.0 | 0.0 | 0.00 | 0.25 | 0.14 | 95 | 1010.1 |
| 20260904123403 | 74 | 146 | 0.0 | 0.0 | 0.00 | 0.25 | 0.14 | 95 | 1010.0 |
| 20260904123021 | 74 | 146 | 0.0 | 0.0 | 0.00 | 0.26 | 0.14 | 95 | 1010.1 |
| 20260904122951 | 74 | 146 | 0.0 | 0.0 | 0.00 | 0.25 | 0.14 | 95 | 1009.8 |
| 20260904121903 | 74 | 146 | 0.0 | 0.0 | 0.00 | 0.26 | 0.14 | 94 | 1010.3 |
| 20260904121710 | 75 | 146 | 0.0 | 0.0 | 0.00 | 0.26 | 0.14 | 94 | 1010.3 |
| 20260904120901 | 75 | 146 | 0.0 | 0.0 | 0.00 | 0.26 | 0.14 | 94 | 1010.1 |
| 20260904120401 | 75 | 146 | 0.0 | 0.0 | 0.00 | 0.27 | 0.14 | 94 | 1010.0 |
| 20260904120211 | 75 | 146 | 0.0 | 0.0 | 0.00 | 0.27 | 0.14 | 94 | 1009.7 |
| 20260904115401 | 75 | 146 | 0.0 | 2.0 | 0.03 | 0.27 | 0.14 | 94 | 1009.8 |
| 20260904114901 | 75 | 146 | 0.0 | 2.0 | 0.03 | 0.29 | 0.14 | 94 | 1009.8 |
| 20260904114359 | 75 | 146 | 0.0 | 0.0 | 0.04 | 0.30 | 0.14 | 94 | 1009.8 |
| 20260904113859 | 75 | 146 | 0.0 | 0.0 | 0.06 | 0.30 | 0.14 | 94 | 1009.9 |
| 20260904113358 | 75 | 146 | 0.0 | 0.0 | 0.13 | 0.30 | 0.14 | 94 | 1009.9 |
| 20260904112857 | 75 | 146 | 0.0 | 0.0 | 0.13 | 0.30 | 0.14 | 94 | 1009.8 |
| 20260904112710 | 75 | 146 | 0.0 | 0.0 | 0.13 | 0.30 | 0.14 | 93 | 1009.6 |
| 20260904111855 | 75 | 146 | 0.0 | 0.0 | 0.13 | 0.30 | 0.14 | 93 | 1009.5 |
| 20260904111653 | 75 | 146 | 0.0 | 0.0 | 0.13 | 0.30 | 0.14 | 93 | 1009.5 |
| 20260904110852 | 76 | 146 | 0.0 | 0.0 | 0.13 | 0.30 | 0.14 | 93 | 1009.4 |
| 20260904110351 | 76 | 146 | 0.0 | 3.0 | 0.13 | 0.30 | 0.14 | 93 | 1009.4 |
| 20260904105848 | 76 | 146 | 0.0 | 3.0 | 0.13 | 0.30 | 0.14 | 93 | 1009.3 |
| 20260904105349 | 76 | 156 | 0.0 | 1.0 | 0.11 | 0.27 | 0.11 | 92 | 1009.4 |
| 20260904104847 | 76 | 156 | 1.0 | 3.0 | 0.11 | 0.27 | 0.10 | 92 | 1009.2 |
| 20260904104347 | 76 | 65 | 1.0 | 3.0 | 0.10 | 0.26 | 0.09 | 92 | 1009.4 |
| 20260904103847 | 76 | 65 | 0.0 | 3.0 | 0.07 | 0.23 | 0.04 | 91 | 1009.6 |
| 20260904103348 | 76 | 314 | 0.0 | 0.0 | 0.01 | 0.17 | 0.01 | 91 | 1009.7 |
| 20260904102849 | 76 | 314 | 0.0 | 1.0 | 0.01 | 0.17 | 0.01 | 90 | 1009.6 |
| 20260904102346 | 76 | 314 | 0.0 | 2.0 | 0.01 | 0.17 | 0.01 | 90 | 1009.3 |
| 20260904101845 | 76 | 314 | 1.0 | 4.0 | 0.01 | 0.17 | 0.01 | 90 | 1009.5 |
| 20260904101345 | 77 | 314 | 2.0 | 4.0 | 0.01 | 0.17 | 0.01 | 89 | 1009.8 |
| 20260904101022 | 77 | 313 | 1.0 | 5.0 | 0.01 | 0.17 | 0.01 | 89 | 1010.0 |
| 20260904100943 | 77 | 314 | 2.0 | 5.0 | 0.01 | 0.17 | 0.01 | 88 | 1010.0 |
| 20260904095844 | 78 | 257 | 0.0 | 1.0 | 0.01 | 0.17 | 0.01 | 88 | 1009.2 |
| 20260904095345 | 78 | 257 | 0.0 | 1.0 | 0.00 | 0.16 | 0.00 | 87 | 1009.1 |
| 20260904094845 | 78 | 257 | 0.0 | 0.0 | 0.00 | 0.16 | 0.00 | 87 | 1009.2 |
| 20260904094342 | 78 | 257 | 0.0 | 0.0 | 0.00 | 0.16 | 0.00 | 87 | 1009.0 |
| 20260904093843 | 78 | 257 | 0.0 | 0.0 | 0.00 | 0.16 | 0.00 | 86 | 1009.2 |
| 20260904093343 | 78 | 257 | 0.0 | 0.0 | 0.00 | 0.16 | 0.00 | 87 | 1009.3 |
| 20260904092842 | 78 | 257 | 0.0 | 0.0 | 0.00 | 0.16 | 0.00 | 87 | 1009.2 |
| 20260904092336 | 78 | 257 | 0.0 | 0.0 | 0.00 | 0.16 | 0.00 | 87 | 1009.2 |
| 20260904091837 | 78 | 257 | 0.0 | 1.0 | 0.00 | 0.16 | 0.00 | 87 | 1009.2 |
| 20260904091336 | 78 | 257 | 0.0 | 1.0 | 0.00 | 0.16 | 0.00 | 87 | 1009.2 |
| 20260904090835 | 78 | 257 | 0.0 | 1.0 | 0.00 | 0.16 | 0.00 | 87 | 1009.2 |
| 20260904090334 | 78 | 257 | 0.0 | 1.0 | 0.00 | 0.16 | 0.00 | 87 | 1009.3 |
| 20260904090144 | 78 | 257 | 0.0 | 3.0 | 0.00 | 0.16 | 0.00 | 87 | 1009.3 |
| 20260904085335 | 78 | 257 | 0.0 | 3.0 | 0.00 | 0.16 | 0.00 | 87 | 1009.2 |
| 20260904085144 | 78 | 217 | 0.0 | 0.0 | 0.00 | 0.16 | 0.00 | 87 | 1009.2 |
| 20260904084335 | 78 | 217 | 0.0 | 0.0 | 0.00 | 0.16 | 0.00 | 87 | 1009.3 |
| 20260904083832 | 78 | 217 | 0.0 | 0.0 | 0.00 | 0.16 | 0.00 | 87 | 1009.2 |
| 20260904083331 | 78 | 217 | 0.0 | 0.0 | 0.00 | 0.16 | 0.00 | 87 | 1009.1 |
| 20260904082831 | 78 | 217 | 0.0 | 0.0 | 0.00 | 0.16 | 0.00 | 88 | 1009.1 |
| 20260904082330 | 78 | 217 | 0.0 | 0.0 | 0.00 | 0.16 | 0.00 | 89 | 1009.0 |
| 20260904081831 | 78 | 217 | 0.0 | 0.0 | 0.00 | 0.16 | 0.00 | 89 | 1009.0 |
| 20260904081330 | 77 | 217 | 0.0 | 0.0 | 0.00 | 0.16 | 0.00 | 89 | 1009.0 |
| 20260904080830 | 77 | 217 | 0.0 | 1.0 | 0.00 | 0.16 | 0.00 | 90 | 1009.0 |
| 20260904080636 | 77 | 217 | 0.0 | 2.0 | 0.00 | 0.16 | 0.00 | 90 | 1009.0 |
| 20260904075829 | 77 | 217 | 0.0 | 2.0 | 0.00 | 0.16 | 0.00 | 90 | 1008.9 |
| 20260904075329 | 77 | 265 | 0.0 | 2.0 | 0.00 | 0.16 | 0.00 | 90 | 1008.9 |
| 20260904074829 | 77 | 219 | 0.0 | 2.0 | 0.00 | 0.16 | 0.00 | 90 | 1008.9 |
| 20260904074333 | 77 | 215 | 0.0 | 0.0 | 0.00 | 0.16 | 0.00 | 90 | 1008.9 |
| 20260904073830 | 77 | 215 | 0.0 | 1.0 | 0.00 | 0.16 | 0.00 | 90 | 1008.8 |
| 20260904073328 | 77 | 215 | 0.0 | 1.0 | 0.00 | 0.16 | 0.00 | 90 | 1008.8 |
| 20260904072829 | 77 | 199 | 0.0 | 0.0 | 0.00 | 0.16 | 0.00 | 90 | 1008.8 |
| 20260904072328 | 77 | 199 | 0.0 | 0.0 | 0.00 | 0.16 | 0.00 | 90 | 1008.7 |
| 20260904071828 | 78 | 171 | 0.0 | 0.0 | 0.00 | 0.16 | 0.00 | 90 | 1008.8 |
| 20260904071328 | 78 | 171 | 0.0 | 2.0 | 0.00 | 0.16 | 0.00 | 90 | 1008.8 |
| 20260904070828 | 78 | 171 | 0.0 | 2.0 | 0.00 | 0.16 | 0.00 | 91 | 1008.8 |
| 20260904070329 | 77 | 171 | 1.0 | 4.0 | 0.00 | 0.16 | 0.00 | 91 | 1008.9 |
| 20260904070128 | 77 | 171 | 1.0 | 4.0 | 0.00 | 0.16 | 0.00 | 92 | 1008.9 |
| 20260904065629 | 77 | 171 | 0.0 | 2.0 | 0.00 | 0.16 | 0.00 | 92 | 1009.0 |
| 20260904064828 | 76 | 238 | 0.0 | 0.0 | 0.00 | 0.16 | 0.00 | 92 | 1009.1 |
| 20260904064330 | 76 | 238 | 0.0 | 0.0 | 0.00 | 0.16 | 0.00 | 92 | 1009.1 |
| 20260904063830 | 76 | 238 | 0.0 | 0.0 | 0.00 | 0.16 | 0.00 | 92 | 1009.1 |
| 20260904063332 | 76 | 238 | 0.0 | 0.0 | 0.00 | 0.16 | 0.00 | 92 | 1009.1 |
| 20260904062832 | 76 | 238 | 0.0 | 0.0 | 0.00 | 0.16 | 0.00 | 92 | 1009.1 |
| 20260904062328 | 76 | 277 | 0.0 | 0.0 | 0.00 | 0.16 | 0.00 | 92 | 1009.1 |
| 20260904061829 | 76 | 277 | 0.0 | 0.0 | 0.00 | 0.16 | 0.00 | 92 | 1009.1 |
| 20260904061635 | 76 | 277 | 0.0 | 0.0 | 0.00 | 0.16 | 0.00 | 91 | 1009.1 |
| 20260904060830 | 76 | 105 | 0.0 | 0.0 | 0.00 | 0.16 | 0.00 | 91 | 1009.3 |
| 20260904060329 | 76 | 105 | 0.0 | 0.0 | 0.00 | 0.16 | 0.00 | 91 | 1009.3 |
| 20260904055829 | 76 | 105 | 0.0 | 0.0 | 0.00 | 0.16 | 0.00 | 90 | 1009.4 |
| 20260904055329 | 76 | 105 | 0.0 | 0.0 | 0.00 | 0.16 | 0.00 | 91 | 1009.4 |
| 20260904054828 | 76 | 105 | 0.0 | 0.0 | 0.00 | 0.16 | 0.00 | 91 | 1009.6 |
| 20260904054329 | 77 | 105 | 0.0 | 0.0 | 0.00 | 0.16 | 0.00 | 91 | 1009.6 |
| 20260904053828 | 77 | 105 | 0.0 | 0.0 | 0.00 | 0.16 | 0.00 | 92 | 1009.5 |
| 20260904053326 | 76 | 105 | 0.0 | 0.0 | 0.00 | 0.16 | 0.00 | 92 | 1009.5 |
| 20260904052824 | 76 | 105 | 0.0 | 0.0 | 0.00 | 0.16 | 0.00 | 92 | 1009.6 |
| 20260904052320 | 76 | 105 | 0.0 | 0.0 | 0.00 | 0.16 | 0.00 | 92 | 1009.7 |
| 20260904051815 | 76 | 105 | 0.0 | 0.0 | 0.00 | 0.16 | 0.00 | 91 | 1009.8 |
| 20260904051309 | 76 | 105 | 0.0 | 0.0 | 0.00 | 0.16 | 0.00 | 91 | 1009.9 |
| 20260904050810 | 76 | 105 | 0.0 | 0.0 | 0.00 | 0.16 | 0.00 | 91 | 1010.0 |
| 20260904050310 | 76 | 105 | 0.0 | 0.0 | 0.00 | 0.16 | 0.00 | 91 | 1010.0 |
| 20260904045811 | 76 | 105 | 0.0 | 1.0 | 0.00 | 0.16 | 0.16 | 91 | 1010.0 |
| 20260904045311 | 76 | 105 | 1.0 | 3.0 | 0.00 | 0.16 | 0.16 | 91 | 1010.1 |
| 20260904045117 | 76 | 105 | 1.0 | 3.0 | 0.00 | 0.16 | 0.16 | 91 | 1010.3 |
| 20260904044611 | 76 | 105 | 1.0 | 4.0 | 0.00 | 0.16 | 0.16 | 91 | 1010.3 |
| 20260904043810 | 76 | 105 | 1.0 | 4.0 | 0.00 | 0.16 | 0.16 | 91 | 1010.4 |
| 20260904043611 | 76 | 105 | 1.0 | 3.0 | 0.00 | 0.16 | 0.16 | 91 | 1010.4 |
| 20260904042810 | 76 | 105 | 0.0 | 2.0 | 0.00 | 0.16 | 0.16 | 90 | 1010.4 |
| 20260904042313 | 76 | 105 | 1.0 | 2.0 | 0.00 | 0.16 | 0.16 | 91 | 1010.6 |
| 20260904041811 | 76 | 105 | 1.0 | 2.0 | 0.00 | 0.16 | 0.16 | 90 | 1010.6 |
| 20260904041309 | 77 | 105 | 2.0 | 4.0 | 0.00 | 0.16 | 0.16 | 90 | 1010.7 |
| 20260904040812 | 76 | 105 | 3.0 | 6.0 | 0.00 | 0.16 | 0.16 | 91 | 1010.5 |
| 20260904040308 | 76 | 80 | 2.0 | 6.0 | 0.00 | 0.16 | 0.16 | 91 | 1010.4 |
| 20260904035809 | 76 | 105 | 2.0 | 6.0 | 0.00 | 0.16 | 0.16 | 91 | 1010.5 |
| 20260904035307 | 76 | 105 | 3.0 | 8.0 | 0.00 | 0.16 | 0.16 | 91 | 1010.4 |
| 20260904034806 | 76 | 90 | 3.0 | 8.0 | 0.00 | 0.16 | 0.16 | 90 | 1010.3 |
| 20260904034308 | 76 | 79 | 4.0 | 8.0 | 0.00 | 0.16 | 0.16 | 90 | 1010.1 |
| 20260904033807 | 76 | 81 | 4.0 | 9.0 | 0.00 | 0.16 | 0.16 | 90 | 1010.3 |
| 20260904033307 | 76 | 74 | 4.0 | 9.0 | 0.00 | 0.16 | 0.16 | 90 | 1010.4 |
| 20260904033116 | 76 | 80 | 4.0 | 9.0 | 0.00 | 0.16 | 0.16 | 90 | 1010.4 |
| 20260904032305 | 76 | 97 | 5.0 | 10.0 | 0.00 | 0.16 | 0.16 | 90 | 1010.6 |
| 20260904031803 | 76 | 78 | 4.0 | 10.0 | 0.00 | 0.16 | 0.16 | 90 | 1010.5 |
| 20260904031301 | 76 | 94 | 4.0 | 8.0 | 0.00 | 0.16 | 0.16 | 90 | 1010.4 |
| 20260904030801 | 76 | 80 | 4.0 | 9.0 | 0.00 | 0.16 | 0.16 | 90 | 1010.5 |
| 20260904030301 | 76 | 99 | 4.0 | 9.0 | 0.00 | 0.16 | 0.16 | 89 | 1010.4 |
| 20260904025801 | 77 | 92 | 4.0 | 7.0 | 0.00 | 0.16 | 0.16 | 89 | 1010.5 |
| 20260904025301 | 77 | 76 | 3.0 | 7.0 | 0.00 | 0.16 | 0.16 | 89 | 1010.6 |
| 20260904024802 | 77 | 82 | 3.0 | 6.0 | 0.00 | 0.16 | 0.16 | 89 | 1010.7 |
| 20260904024301 | 77 | 74 | 3.0 | 6.0 | 0.00 | 0.16 | 0.16 | 88 | 1010.7 |
| 20260904024114 | 77 | 86 | 3.0 | 6.0 | 0.00 | 0.16 | 0.16 | 88 | 1010.7 |
| 20260904023605 | 77 | 74 | 3.0 | 5.0 | 0.00 | 0.16 | 0.16 | 87 | 1010.6 |
| 20260904022801 | 77 | 80 | 4.0 | 9.0 | 0.00 | 0.16 | 0.16 | 87 | 1010.6 |
| 20260904022301 | 77 | 75 | 4.0 | 10.0 | 0.00 | 0.16 | 0.16 | 87 | 1010.5 |
| 20260904021800 | 78 | 88 | 4.0 | 10.0 | 0.00 | 0.16 | 0.16 | 86 | 1010.5 |
| 20260904021300 | 78 | 72 | 5.0 | 8.0 | 0.00 | 0.16 | 0.16 | 86 | 1010.4 |
| 20260904020801 | 78 | 74 | 5.0 | 8.0 | 0.00 | 0.16 | 0.16 | 86 | 1010.4 |
| 20260904020302 | 78 | 64 | 4.0 | 8.0 | 0.00 | 0.16 | 0.16 | 85 | 1010.4 |
| 20260904015802 | 78 | 72 | 4.0 | 8.0 | 0.00 | 0.16 | 0.16 | 85 | 1010.4 |
| 20260904015302 | 78 | 85 | 4.0 | 7.0 | 0.00 | 0.16 | 0.16 | 85 | 1010.4 |
| 20260904014802 | 78 | 84 | 3.0 | 7.0 | 0.00 | 0.16 | 0.16 | 86 | 1010.4 |
| 20260904014301 | 78 | 78 | 2.0 | 6.0 | 0.00 | 0.16 | 0.16 | 86 | 1010.4 |
| 20260904013801 | 78 | 80 | 3.0 | 5.0 | 0.00 | 0.16 | 0.16 | 86 | 1010.3 |
| 20260904013300 | 78 | 87 | 2.0 | 5.0 | 0.00 | 0.16 | 0.16 | 85 | 1010.1 |
| 20260904012801 | 78 | 78 | 2.0 | 4.0 | 0.00 | 0.16 | 0.16 | 85 | 1010.0 |
| 20260904012305 | 78 | 83 | 2.0 | 4.0 | 0.00 | 0.16 | 0.16 | 85 | 1009.9 |
| 20260904012120 | 78 | 98 | 2.0 | 6.0 | 0.00 | 0.16 | 0.16 | 85 | 1009.7 |
| 20260904011611 | 78 | 100 | 3.0 | 6.0 | 0.00 | 0.16 | 0.16 | 84 | 1009.7 |
| 20260904010801 | 78 | 86 | 3.0 | 6.0 | 0.00 | 0.16 | 0.16 | 84 | 1009.5 |
| 20260904010616 | 79 | 94 | 3.0 | 8.0 | 0.00 | 0.16 | 0.16 | 84 | 1009.5 |
| 20260904005800 | 79 | 72 | 3.0 | 8.0 | 0.00 | 0.16 | 0.16 | 84 | 1009.4 |
| 20260904005301 | 79 | 101 | 3.0 | 8.0 | 0.00 | 0.16 | 0.16 | 83 | 1009.4 |
| 20260904004801 | 79 | 96 | 3.0 | 8.0 | 0.00 | 0.16 | 0.16 | 83 | 1009.4 |
| 20260904004300 | 79 | 101 | 2.0 | 5.0 | 0.00 | 0.16 | 0.16 | 83 | 1009.5 |
| 20260904004112 | 79 | 105 | 1.0 | 3.0 | 0.00 | 0.16 | 0.16 | 83 | 1009.4 |
| 20260904003301 | 80 | 87 | 1.0 | 3.0 | 0.00 | 0.16 | 0.16 | 82 | 1009.6 |
| 20260904002802 | 80 | 87 | 2.0 | 4.0 | 0.00 | 0.16 | 0.16 | 82 | 1009.6 |
| 20260904002301 | 80 | 101 | 2.0 | 6.0 | 0.00 | 0.16 | 0.16 | 82 | 1009.6 |
| 20260904001801 | 80 | 98 | 2.0 | 6.0 | 0.00 | 0.16 | 0.16 | 81 | 1009.7 |
| 20260904001255 | 80 | 94 | 1.0 | 3.0 | 0.00 | 0.16 | 0.16 | 81 | 1009.7 |
| 20260904000753 | 80 | 107 | 0.0 | 2.0 | 0.00 | 0.16 | 0.16 | 82 | 1009.8 |
| 20260904000255 | 80 | 107 | 0.0 | 0.0 | 0.00 | 0.16 | 0.16 | 82 | 1009.8 |
| 20260903235751 | 80 | 107 | 0.0 | 0.0 | 0.00 | 0.16 | 0.16 | 82 | 1009.6 |
| 20260903235600 | 80 | 107 | 0.0 | 0.0 | 0.00 | 0.16 | 0.16 | 81 | 1009.7 |
| 20260903235100 | 81 | 107 | 0.0 | 2.0 | 0.00 | 0.16 | 0.16 | 80 | 1009.8 |
| 20260903234407 | 81 | 107 | 1.0 | 3.0 | 0.00 | 0.16 | 0.16 | 80 | 1009.7 |
| 20260903234337 | 81 | 107 | 1.0 | 3.0 | 0.00 | 0.16 | 0.16 | 80 | 1009.7 |
| 20260903233249 | 81 | 121 | 1.0 | 3.0 | 0.00 | 0.16 | 0.16 | 79 | 1009.6 |
| 20260903232750 | 81 | 121 | 1.0 | 3.0 | 0.00 | 0.16 | 0.16 | 78 | 1009.7 |
| 20260903232249 | 82 | 113 | 1.0 | 2.0 | 0.00 | 0.16 | 0.16 | 78 | 1009.6 |
| 20260903231904 | 82 | 113 | 1.0 | 3.0 | 0.00 | 0.16 | 0.16 | 77 | 1009.7 |
| 20260903231836 | 82 | 113 | 0.0 | 2.0 | 0.00 | 0.16 | 0.16 | 77 | 1009.7 |
| 20260903230739 | 82 | 113 | 2.0 | 6.0 | 0.00 | 0.16 | 0.16 | 76 | 1009.6 |
| 20260903230237 | 82 | 95 | 2.0 | 6.0 | 0.00 | 0.16 | 0.16 | 75 | 1009.5 |
| 20260903225737 | 82 | 92 | 1.0 | 3.0 | 0.00 | 0.16 | 0.16 | 75 | 1009.6 |
| 20260903225546 | 82 | 92 | 1.0 | 4.0 | 0.00 | 0.16 | 0.16 | 74 | 1009.8 |
| 20260903224733 | 83 | 101 | 2.0 | 4.0 | 0.00 | 0.16 | 0.16 | 74 | 1009.8 |
| 20260903224231 | 83 | 82 | 1.0 | 4.0 | 0.00 | 0.16 | 0.16 | 74 | 1009.8 |
| 20260903223729 | 83 | 111 | 1.0 | 4.0 | 0.00 | 0.16 | 0.16 | 75 | 1009.8 |
| 20260903223228 | 83 | 142 | 1.0 | 3.0 | 0.00 | 0.16 | 0.16 | 76 | 1009.9 |
| 20260903222729 | 83 | 102 | 1.0 | 3.0 | 0.00 | 0.16 | 0.16 | 75 | 1010.0 |
| 20260903222229 | 83 | 102 | 2.0 | 6.0 | 0.00 | 0.16 | 0.16 | 74 | 1009.9 |
| 20260903221729 | 83 | 101 | 3.0 | 6.0 | 0.00 | 0.16 | 0.16 | 73 | 1009.9 |
| 20260903221228 | 83 | 83 | 2.0 | 4.0 | 0.00 | 0.16 | 0.16 | 74 | 1009.7 |
| 20260903220729 | 83 | 159 | 1.0 | 4.0 | 0.00 | 0.16 | 0.16 | 75 | 1010.0 |
| 20260903220229 | 83 | 159 | 0.0 | 0.0 | 0.00 | 0.16 | 0.16 | 75 | 1010.3 |
| 20260903215728 | 83 | 159 | 0.0 | 2.0 | 0.00 | 0.16 | 0.16 | 73 | 1010.3 |
| 20260903215541 | 83 | 159 | 1.0 | 4.0 | 0.00 | 0.16 | 0.16 | 75 | 1010.4 |
| 20260903214728 | 82 | 159 | 2.0 | 4.0 | 0.00 | 0.16 | 0.16 | 74 | 1010.5 |
| 20260903214228 | 82 | 159 | 1.0 | 4.0 | 0.00 | 0.16 | 0.16 | 75 | 1010.5 |
| 20260903213729 | 82 | 159 | 2.0 | 5.0 | 0.00 | 0.16 | 0.16 | 73 | 1010.6 |
| 20260903213229 | 82 | 159 | 2.0 | 5.0 | 0.00 | 0.16 | 0.16 | 73 | 1010.6 |
| 20260903212729 | 82 | 157 | 1.0 | 3.0 | 0.00 | 0.16 | 0.16 | 74 | 1010.5 |
| 20260903212229 | 82 | 98 | 1.0 | 3.0 | 0.00 | 0.16 | 0.16 | 75 | 1010.3 |
| 20260903212045 | 82 | 100 | 1.0 | 3.0 | 0.00 | 0.16 | 0.16 | 76 | 1010.0 |
| 20260903211229 | 82 | 100 | 1.0 | 4.0 | 0.00 | 0.16 | 0.16 | 75 | 1009.9 |
| 20260903210730 | 82 | 92 | 1.0 | 6.0 | 0.00 | 0.16 | 0.16 | 75 | 1009.9 |
| 20260903210228 | 82 | 92 | 1.0 | 6.0 | 0.00 | 0.16 | 0.16 | 76 | 1010.0 |
| 20260903205729 | 82 | 106 | 1.0 | 4.0 | 0.00 | 0.16 | 0.16 | 75 | 1010.1 |
| 20260903205228 | 81 | 111 | 0.0 | 0.0 | 0.00 | 0.16 | 0.16 | 74 | 1010.3 |
| 20260903204728 | 81 | 112 | 1.0 | 3.0 | 0.00 | 0.16 | 0.16 | 75 | 1010.3 |
| 20260903204229 | 81 | 90 | 2.0 | 3.0 | 0.00 | 0.16 | 0.16 | 75 | 1010.1 |
| 20260903203729 | 81 | 90 | 2.0 | 3.0 | 0.00 | 0.16 | 0.16 | 74 | 1010.3 |
| 20260903203229 | 81 | 90 | 2.0 | 3.0 | 0.00 | 0.16 | 0.16 | 74 | 1010.5 |
| 20260903202729 | 82 | 90 | 2.0 | 4.0 | 0.00 | 0.16 | 0.16 | 74 | 1010.5 |
| 20260903202230 | 82 | 90 | 2.0 | 4.0 | 0.00 | 0.16 | 0.16 | 73 | 1010.6 |
| 20260903201729 | 82 | 69 | 1.0 | 4.0 | 0.00 | 0.16 | 0.16 | 73 | 1010.5 |
| 20260903201229 | 82 | 101 | 1.0 | 4.0 | 0.00 | 0.16 | 0.16 | 74 | 1010.4 |
| 20260903201052 | 82 | 103 | 2.0 | 4.0 | 0.00 | 0.16 | 0.16 | 74 | 1010.4 |
| 20260903200229 | 82 | 77 | 2.0 | 6.0 | 0.00 | 0.16 | 0.16 | 75 | 1010.4 |
| 20260903195728 | 82 | 100 | 1.0 | 6.0 | 0.01 | 0.16 | 0.16 | 72 | 1010.6 |
| 20260903195541 | 82 | 279 | 0.0 | 0.0 | 0.01 | 0.16 | 0.16 | 77 | 1010.7 |
| 20260903194732 | 82 | 277 | 0.0 | 0.0 | 0.01 | 0.16 | 0.16 | 76 | 1011.0 |
| 20260903194358 | 82 | 277 | 0.0 | 0.0 | 0.01 | 0.16 | 0.16 | 77 | 1011.3 |
| 20260903194322 | 82 | 277 | 0.0 | 0.0 | 0.01 | 0.16 | 0.16 | 76 | 1011.1 |
| 20260903193231 | 82 | 277 | 0.0 | 0.0 | 0.01 | 0.16 | 0.16 | 75 | 1011.2 |
| 20260903192730 | 82 | 277 | 0.0 | 0.0 | 0.01 | 0.16 | 0.16 | 75 | 1011.2 |
| 20260903192229 | 82 | 277 | 0.0 | 0.0 | 0.01 | 0.16 | 0.16 | 73 | 1011.1 |
| 20260903191729 | 82 | 277 | 0.0 | 0.0 | 0.01 | 0.16 | 0.16 | 75 | 1011.3 |
| 20260903191229 | 82 | 257 | 0.0 | 0.0 | 0.01 | 0.16 | 0.16 | 75 | 1011.3 |
| 20260903190730 | 81 | 246 | 0.0 | 0.0 | 0.01 | 0.16 | 0.16 | 78 | 1011.1 |
| 20260903190230 | 81 | 245 | 0.0 | 0.0 | 0.01 | 0.16 | 0.16 | 77 | 1011.1 |
| 20260903185731 | 80 | 241 | 0.0 | 1.0 | 0.00 | 0.15 | 0.15 | 78 | 1011.0 |
| 20260903185229 | 80 | 235 | 0.0 | 1.0 | 0.00 | 0.15 | 0.15 | 80 | 1010.9 |
| 20260903184728 | 80 | 235 | 0.0 | 0.0 | 0.00 | 0.15 | 0.15 | 79 | 1010.6 |
| 20260903184230 | 79 | 235 | 0.0 | 0.0 | 0.00 | 0.15 | 0.15 | 79 | 1010.5 |
| 20260903183729 | 79 | 235 | 0.0 | 0.0 | 0.00 | 0.15 | 0.15 | 81 | 1010.6 |
| 20260903183230 | 79 | 235 | 0.0 | 0.0 | 0.00 | 0.15 | 0.15 | 79 | 1010.7 |
| 20260903182733 | 78 | 235 | 0.0 | 0.0 | 0.00 | 0.15 | 0.15 | 78 | 1010.7 |
| 20260903182232 | 78 | 235 | 0.0 | 0.0 | 0.00 | 0.15 | 0.15 | 80 | 1010.5 |
| 20260903181730 | 78 | 235 | 0.0 | 0.0 | 0.00 | 0.15 | 0.15 | 81 | 1010.6 |
| 20260903181228 | 78 | 235 | 1.0 | 3.0 | 0.00 | 0.15 | 0.15 | 80 | 1010.7 |
| 20260903181030 | 77 | 235 | 1.0 | 3.0 | 0.00 | 0.15 | 0.15 | 81 | 1010.9 |
| 20260903180215 | 77 | 235 | 0.0 | 3.0 | 0.00 | 0.15 | 0.15 | 83 | 1010.9 |
| 20260903175714 | 77 | 221 | 0.0 | 1.0 | 0.00 | 0.15 | 0.15 | 86 | 1010.9 |
| 20260903175218 | 76 | 207 | 0.0 | 0.0 | 0.00 | 0.15 | 0.15 | 87 | 1010.7 |
| 20260903174715 | 76 | 207 | 0.0 | 0.0 | 0.00 | 0.15 | 0.15 | 87 | 1010.6 |
| 20260903174511 | 75 | 207 | 0.0 | 0.0 | 0.00 | 0.15 | 0.15 | 88 | 1010.7 |